Regional Weather Roundup
Issued by NWS Cleveland, OH

Home | Current Version | Previous Version | Graphics & Text | Print | Product List | Glossary On
Versions: 1 2 3 4 5 6 7 8 9 10 11 12 13 14 15 16 17 18 19 20 21 22 23 24 25 26 27 28 29 30 31 32 33 34 35 36 37 38 39 40 41 42 43 44 45 46 47 48 49 50
000
ASUS41 KCLE 250912
RWRCLE
OHIO REGIONAL WEATHER ROUNDUP
NATIONAL WEATHER SERVICE WILMINGTON, OH
500 AM EDT TUE APR 25 2017

NOTE: "FAIR" INDICATES FEW OR NO CLOUDS BELOW 12,000 FEET WITH NO
SIGNIFICANT WEATHER AND/OR OBSTRUCTIONS TO VISIBILITY.

OHZ001>008-015>018-024>027-034-035-043-044-251000-
   NORTHWEST OHIO

CITY           SKY/WX    TMP DP  RH WIND       PRES   REMARKS
DEFIANCE       CLOUDY    50  45  83 E3        29.84R
FINDLAY        FAIR      55  45  68 SE3       29.82S
TOLEDO EXPRESS CLOUDY    52  48  86 NE5       29.84S
TOLEDO EXEC    CLOUDY    55  48  77 NE3       29.86R
LIMA           CLOUDY    52  47  83 SE6       29.82R
$$

OHZ009>014-019>023-028>033-038-089-251000-
   NORTHEAST OHIO

CITY           SKY/WX    TMP DP  RH WIND       PRES   REMARKS
CLE-HOPKINS    CLOUDY    58  43  57 SE12G20   29.89R
CLE-LAKEFRONT  CLOUDY    58  43  57 SE14G22   29.86S
CUY CO. ARPT   NOT AVBL
LORAIN-ELYRIA  CLOUDY    55  43  63 SE13      29.86S
ASHTABULA      CLOUDY    55  43  63 SE7       29.91S
AKRON-CANTON   CLOUDY    54  43  66 E8        29.88S
WOOSTER        CLOUDY    53  45  74 SE8       29.88R
MANSFIELD      CLOUDY    53  45  74 SE13      29.85S
YOUNGSTOWN     CLOUDY    54  40  59 SE13      29.91R
$$

OHZ042-051>053-060>062-070>072-077>081-251000-
  SOUTHWEST OHIO

CITY           SKY/WX    TMP DP  RH WIND       PRES   REMARKS
CINC-COVINGTON FAIR      53  50  89 E8        29.78S
CINC-LUNKEN    FAIR      52  52 100 CALM      29.81R
HAMILTON       FAIR      50  49  96 CALM      29.81R
DAYTON         FAIR      51  47  86 E3        29.82R
WRIGHT-PAT AFB FAIR      52  49  89 CALM      29.80S
DAYTON GENERAL FAIR      51  47  86 E8        29.80R
WILMINGTON     CLOUDY    52  49  89 E7        29.80R
$$

OHZ036-037-039>041-045>050-054>059-063>069-073>076-082>088-251000-
  CENTRAL AND SOUTHEAST OHIO

CITY           SKY/WX    TMP DP  RH WIND       PRES   REMARKS
COLUMBUS       CLOUDY    55  48  77 E10       29.82S
OSU AIRPORT    CLOUDY    54  48  80 E8        29.82S
BOLTON FIELD   CLOUDY    54  47  78 E6        29.82S
RICKENBACK AFB CLOUDY    53  48  82 E5        29.82S
NEWARK         CLOUDY    54  46  74 E6        29.83S
MARION         CLOUDY    54  45  71 SE12      29.84S
LANCASTER      CLOUDY    55  47  74 E8        29.83S
ZANESVILLE     CLOUDY    54  46  74 NE6       29.84S
NEW PHILLY     CLOUDY    54  46  74 E5        29.87S
$$




USA.gov is the U.S. government's official web portal to all federal, state and local government web resources and services.